Regional Weather Roundup
Issued by NWS Jackson, KY

Home | Current Version | Previous Version | Graphics & Text | Print | Product List | Glossary On
Versions: 1 2 3 4 5 6 7 8 9 10 11 12 13 14 15 16 17 18 19 20 21 22 23 24 25 26 27 28
000
ASUS43 KJKL 182010
RWRJKL

EAST KENTUCKY HOURLY WEATHER ROUNDUP
NATIONAL WEATHER SERVICE JACKSON KY
300 PM EST WED JAN 18 2017

NOTE: "FAIR" INDICATES FEW OR NO CLOUDS BELOW 12,000 FEET WITH
NO SIGNIFICANT WEATHER AND/OR OBSTRUCTIONS TO VISIBILITY.

* THESE REPORTS ARE NOT UNDER NWS QUALITY CONTROL AND MAY NOT
  REPORT WEATHER SUCH AS PRECIPITATION AND FOG.

KYZ079-080-083-085-087-088-110-112-115-119-120-182100
...EASTERN KENTUCKY...

CITY           SKY/WX    TMP DP  RH WIND       PRES   REMARKS
JACKSON        CLOUDY    44  37  76 CALM      30.14F
LONDON         CLOUDY    49  36  61 VRB3      30.14F
SOMERSET*      CLOUDY    46  36  66 CALM      30.17F
MONTICELLO*    SUNNY     50  38  63 VRB6      30.17F
WILLIAMSBURG*  CLOUDY    50  37  62 CALM      30.14F
MIDDLESBORO*   SUNNY     53  39  60 NE7       30.13F
HARLAN APT*    CLEAR     54  37  54 SW7       30.12F
PIKE CO APT*   CLOUDY    44  39  82 NW7       30.14F
BIG SANDY APT* CLOUDY    45  39  80 W3        30.15F
MOREHEAD APT*  CLOUDY    43  36  75 W5        30.17F
ASHLAND*       CLOUDY    45  37  76 NW7       30.16S
$$

KYZ035-036-041-042-044-050-067-078-099-182100
...CENTRAL KENTUCKY...

CITY           SKY/WX    TMP DP  RH WIND       PRES   REMARKS
MT STERLING*   CLOUDY    43  36  75 NW5       30.18F
FLEMING/MASON* CLOUDY    42  35  77 NW8       30.17F
DANVILLE*      CLOUDY    45  36  70 CALM      30.17F
LEXINGTON      CLOUDY    44  36  73 SW7       30.16F
FRANKFORT      CLOUDY    44  35  70 W3        30.16F
LOUISVILLE     CLOUDY    44  35  70 W5        30.17F
LEBANON*       CLOUDY    45  36  70 CALM      30.17F
GLASGOW*       MOSUNNY   50  37  62 CALM      30.16F
BOWLING GREEN  CLOUDY    50  38  63 CALM      30.17F
$$

KYZ091>093-OHZ055-061-077-WVZ005-015-034-035-042-182100
...SOUTHERN OHIO/WEST VIRGINIA...

CITY           SKY/WX    TMP DP  RH WIND       PRES   REMARKS
COVINGTON      CLOUDY    41  36  82 SW8       30.15F
COLUMBUS       CLOUDY    41  34  76 SW10      30.11F
DAYTON         DRIZZLE   37  35  92 W10       30.15F FOG     WCI  30
WILMINGTON     CLOUDY    38  35  89 W13       30.15S WCI  30
HUNTINGTON     CLOUDY    44  35  70 VRB6      30.16R
CHARLESTON     CLOUDY    45  39  79 VRB3      30.13F
PINEVILLE*     CLOUDY    45  36  70 MISG      30.17R
BECKLEY        CLOUDY    40  35  83 W9        30.09F WCI  34
BLUEFIELD      CLOUDY    41  34  76 NW7       30.09S
LOGAN CO APT*  CLOUDY    43  39  87 CALM      30.13R
$$

VAZ002-007-008-TNZ017-027-036-066-071-182100
...SOUTHWEST VIRGINIA/EAST TENNESSEE...

CITY           SKY/WX    TMP DP  RH WIND       PRES   REMARKS
WISE*          SUNNY     50  36  57 NW7       30.11F
JONESVILLE*      N/A     54  39  58 SW6       30.13F
ABINGDON*      SUNNY     58  40  50 NW8       30.08S
BRISTOL        MOSUNNY   59  38  45 W13       30.08F
MORRISTOWN*    CLEAR     57  39  51 NW8       30.09F
SEVIERVILLE*   CLEAR     57  45  62 CALM      30.10F
KNOXVILLE      CLOUDY    59  42  53 CALM      30.10F
LAFOLLETTE*    CLEAR     57  39  51 CALM      30.14F
OAK RIDGE      CLOUDY    60  40  47 S3        30.12F
CROSSVILLE     MOSUNNY   52  39  61 N3        30.12F
NASHVILLE      CLOUDY    49  39  68 SE5       30.17F
$$

...KEY TO REMARKS...
VSB - VISIBILITY IN MILES
WCI - WIND CHILL INDEX
HX  - HEAT INDEX

$$




USA.gov is the U.S. government's official web portal to all federal, state and local government web resources and services.